Miscellaneous Local Product
Issued by NWS Hastings, NE

Home | Current Version | Previous Version | Text Only | Print | Product List | Glossary On
Versions: 1 2 3 4 5 6 7 8 9 10 11 12 13 14 15 16 17 18 19 20 21 22 23 24 25 26 27 28 29 30 31 32 33 34 35 36 37 38 39 40 41 42 43 44 45 46 47 48 49 50
000
AXUS43 KGID 200002
MISGRI

GID CWA HOURLY WEATHER ROUNDUP
NATIONAL WEATHER SERVICE HASTINGS NE
700 PM CDT TUE SEP 19 2017

NOTE: "FAIR" INDICATES FEW OR NO CLOUDS BELOW 12,000 FEET WITH NO
SIGNIFICANT WEATHER AND/OR OBSTRUCTIONS TO VISIBILITY.

...SOUTH CENTRAL NEBRASKA...

CITY           SKY/WX    TMP DP  RH WIND       PRES   REMARKS
GRAND ISLAND   CLOUDY    85  67  54 SE20G26   29.48S
HASTINGS       CLOUDY    89  60  37 S15G25    29.48F
KEARNEY        CLOUDY    84  62  47 S10       29.47R
ORD            CLOUDY    85  63  47 SE10      29.45S
YORK           CLOUDY    86  66  51 S16G23    29.50F
AURORA         CLOUDY    85  65  51 S17G23    29.49S
LEXINGTON      CLOUDY    87  53  30 CALM      29.48R
HOLDREGE       CLOUDY    90  36  14 S16       29.48R
HEBRON         CLOUDY    89  67  49 S15G23    29.52F HX  92

...NEBRASKA PANHANDLE...

CITY           SKY/WX    TMP DP  RH WIND       PRES   REMARKS
CHADRON        PTCLDY    65  34  31 W21G28    29.70R
ALLIANCE       CLEAR     63  34  33 NW32G40   29.71R
SCOTTSBLUFF    MOCLDY    61  34  36 W29G39    29.74R
SIDNEY         CLEAR     66  38  35 N30G41    29.72R

...WESTERN AND NORTH CENTRAL NEBRASKA...

CITY           SKY/WX    TMP DP  RH WIND       PRES   REMARKS
VALENTINE      CLOUDY    84  57  39 W9        29.51R
AINSWORTH      CLOUDY    79  62  55 CALM      29.50S
ONEILL         CLOUDY    82  67  60 S12       29.49S
BROKEN BOW     CLEAR     84  59  42 S7        29.47F
IMPERIAL       CLOUDY    83  44  25 VRB3      29.52R
NORTH PLATTE   CLOUDY    81  49  32 VRB5      29.48R
MCCOOK         PTCLDY    89  33  13 SW10      29.48R

...EASTERN NEBRASKA...

CITY           SKY/WX    TMP DP  RH WIND       PRES   REMARKS
NORFOLK        CLOUDY    83  68  60 SE12      29.49S
SO SIOUX CITY  CLOUDY    82  68  62 SE16G25   29.53R
TEKAMAH        CLOUDY    83  67  58 SE15G26   29.54F
COLUMBUS       CLOUDY    85  69  58 SE14      29.50F
ALBION         CLOUDY    83  70  64 SE10      29.49S
OMAHA EPPLEY   CLOUDY    85  67  54 SE28G35   29.57F
OFFUTT AFB     CLOUDY    84  68  59 SE23G29   29.58F
MILLARD        CLOUDY    85  71  62 SE24      29.57S HX  91
LINCOLN        CLOUDY    87  68  52 SE22G30   29.54F HX  90
NEBRASKA CITY  CLEAR     83  70  63 S15G26    29.62S
BEATRICE       CLOUDY    89  70  53 S16G26    29.56S HX  93
FALLS CITY     CLEAR     84  68  58 SE18G32   29.63S

...NORTHERN KANSAS...

CITY           SKY/WX    TMP DP  RH WIND       PRES   REMARKS
GOODLAND       CLOUDY    84  23  10 SW12      29.56R
HILL CITY      CLOUDY    93  33  12 S16G23    29.49S
NORTON         CLEAR     90  25   9 S15G24    29.48R
PHILLIPSBURG   CLEAR     93  34  12 S14G21    29.46F
SMITH CENTER   CLEAR     88  55  33 S10       29.48F
HAYS           CLOUDY    93  36  13 SW21G26   29.52R
RUSSELL        CLOUDY    94  38  14 S21G32    29.51F
CONCORDIA      CLOUDY    89  67  47 S21G30    29.53F HX  92
SALINA         CLEAR     96  62  32 S25G37    29.55F HX  97
TOPEKA         CLEAR     85  72  65 SE18G25   29.65F HX  91



USA.gov is the U.S. government's official web portal to all federal, state and local government web resources and services.